Auburn, NE

12:55 PM CST on February 06, 2016 (GMT -0600)
The Butler's backyard | | Change Station
CLOSE
Current Station
Personal Weather Station
Location: Auburn, NE
Elevation: 1086 ft
Nearby Weather Stations

Elev 1086 ft 40.38 °N, 95.85 °W | Updated 5 minutes ago

Clear
Clear
47.3 °F
Feels Like 44 °F
N
6.3
Wind Variable Wind from WSW

Today
High -- | Low -- °F
--% Chance of Precip.
Yesterday
High -- | Low -- °F
Precip. -- in
Pressure 30.23 in
Visibility 10.0 miles
Clouds Clear
Windchill 44 °F
Dew Point 34 °F
Humidity 60%
Rainfall 0.00 in
Snow Depth Not available.
7:28 AM 5:47 PM
Waning Crescent, 4% visible
METAR KAFK 061835Z AUTO 24012KT 10SM CLR 02/M02 A3023 RMK AO2 T00181017
Pressure 30.23 in
Visibility 10.0 miles
Clouds Clear
Windchill 44 °F
Dew Point 34 °F
Humidity 60%
Rainfall 0.00 in
Snow Depth Not available.
7:28 AM 5:47 PM
Waning Crescent, 4% visible
METAR KAFK 061835Z AUTO 24012KT 10SM CLR 02/M02 A3023 RMK AO2 T00181017

10-Day Weather Forecast

Almanac

Astronomy

Feb. 06, 2016 Rise Set
Actual Time
Civil Twilight
Nautical Twilight
Astronomical Twilight
Moon
Length of Visible Light
Length of Day
Tomorrow will be .
, % of the Moon is Illuminated

Today's Extremes

State Highs State Lows

Community

WunderPhotos

Upload Photos

1,891,033 photos uploaded!

WunderBlog® & News

Nearby

Air Quality

  Air Quality AQ Index Pollutant
Not available.

Snow Depth

Station Depth Elevation

Earthquake Activity

City Distance Mag. Time & Date
Minimum magnitude displayed is 2.5.

Coastal Water Temperatures

Place Temperature

Stations

Nearby Weather Stations

Station Location Temp. Windchill Dew Point Humidity Wind Precip. Elev Updated Type
                   

Watches & Warnings

There are currently no watches in effect.